Regional Weather Roundup
Issued by NWS

Home | Current Version | Previous Version | Text Only | Print | Product List | Glossary Off
Versions: 1 2 3 4 5 6 7 8 9 10 11 12 13 14 15 16 17 18 19 20 21 22 23 24 25 26 27 28 29 30 31 32 33 34 35 36 37 38 39 40 41 42 43 44 45 46 47 48 49 50

000
ASUS43 KFSD 241610
RWRSD

WEATHER ROUNDUP FOR SOUTH DAKOTA
NATIONAL WEATHER SERVICE SIOUX FALLS SD
1100 AM CDT WED AUG 24 2016

NOTE: "FAIR" INDICATES FEW OR NO CLOUDS BELOW 12,000 FEET WITH NO
SIGNIFICANT WEATHER AND/OR OBSTRUCTIONS TO VISIBILITY.


SDZ001>005-009-010-012>017-241700-
NORTHWEST AND NORTH CENTRAL SOUTH DAKOTA

CITY           SKY/WX    TMP DP  RH WIND       PRES   REMARKS
BUFFALO          N/A     65  46  50 W25G31    30.10R
FAITH            N/A     66  48  52 W15       30.15R
MOBRIDGE       SUNNY     69  49  48 NW16G24   30.05S
$$

SDZ012>016-024>037-041>051-057-063-072>074-241700-
SOUTHWEST AND SOUTH CENTRAL SOUTH DAKOTA

CITY           SKY/WX    TMP DP  RH WIND       PRES   REMARKS
RAPID CTY ARPT SUNNY     66  46  48 NW16G22   30.20R
PIERRE         CLOUDY    67  49  52 NW14      30.10R
CUSTER         MOSUNNY   64  30  27 VRB6      30.27R
ELLSWORTH AFB  MOSUNNY   66  46  49 N16       30.19R
PHILIP         CLOUDY    67  48  50 NW12      30.16R
PINE RIDGE     CLOUDY    62  46  55 NE9       30.23R
WINNER         FAIR      67  49  52 NW12      30.14R
$$

SDZ004>011-016>023-039-040-241700-
NORTHEAST SOUTH DAKOTA

CITY           SKY/WX    TMP DP  RH WIND       PRES   REMARKS
ABERDEEN       MOSUNNY   70  50  49 NW23G29   29.99S
WATERTOWN      SUNNY     71  53  52 NW14      30.00R
BROOKINGS      MOSUNNY   70  55  59 NW10      30.01R
SISSETON         N/A     71  53  52 N15G24    29.94S
$$

SDZ017-020-022-023-036>040-048>070-241700-
SOUTHEAST SOUTH DAKOTA

CITY           SKY/WX    TMP DP  RH WIND       PRES   REMARKS
SIOUX FALLS    CLOUDY    71  58  63 NW7       30.03R
HURON          PTSUNNY   72  53  51 NW14      30.03R
CHAMBERLAIN    CLOUDY    71  52  50 N12G17    30.09R
MITCHELL       CLOUDY    69  55  60 N8        30.06R
YANKTON        CLOUDY    68  52  56 NW13      30.04R
$$

ABBREVIATIONS USED IN REMARKS
   TC - TEMPERATURE IN CELSIUS
  WCI - WIND CHILL INDEX
   HX - HEAT INDEX
  VSB - VISIBILITY





USA.gov is the U.S. government's official web portal to all federal, state and local government web resources and services.